Location: Aalen
(48.8330°N, 10.1000°E)
Time: 04:09:45
(UTC+02:00)

Transit 2A - Pass Details

Date: 29 July 2021
Orbit: 594 x 964 km, 66.7° (Epoch: 27 September)

Event Time Altitude Azimuth Distance (km) Brightness Sun altitude
Rises 10:40:15 0° 271° (W) 2,893 8.6 45.1°
Reaches altitude 10° 10:43:13 10° 293° (WNW) 2,035 7.9 45.5°
Maximum altitude 10:46:10 17° 333° (NNW) 1,690 7.6 45.9°
Drops below altitude 10° 10:49:18 10° 13° (NNE) 2,163 8.3 46.4°
Sets 10:52:35 0° 34° (NE) 3,165 9.2 46.9°
